Frenchville, ME

1:02 AM EST on February 21, 2018 (GMT -0500)
Northern Aroostook Regional

Weather History for KFVE - January, 2014

Change the Weather History Date:

Wednesday, January 15, 2014

  Actual Average Record
Temperature  
Mean Temperature 31 °F 8 °F  
Max Temperature 36 °F 17 °F 36 °F (2014)
Min Temperature 25 °F 0 °F -24 °F (2004)
Degree Days  
Heating Degree Days 34    
Month to date heating degree days 816  
Since 1 July heating degree days 4520  
Cooling Degree Days 0    
Month to date cooling degree days 0  
Year to date cooling degree days 0  
Moisture  
Dew Point 26 °F    
Average Humidity 86    
Maximum Humidity 100    
Minimum Humidity 63    
Precipitation  
Precipitation 0.00 in 0.02 in 0.15 in (2007)
Month to date precipitation 1.59 1.30  
Year to date precipitation 1.59 1.30  
Sea Level Pressure  
Sea Level Pressure 29.80 in    
Wind  
Wind Speed 10 mph (NNW)    
Max Wind Speed 21 mph    
Max Gust Speed 27 mph    
Visibility 10 miles    
Events      
T = Trace of Precipitation, MM = Missing Value Source: NWS Daily Summary

Daily Weather History Graph

Daily Weather History Graph

Search for Another Location

Airport or City:

Trip Planner

Search our weather history database for the weather conditions in past years. The results will help you decide how hot, cold, wet, or windy it might be!

Date:

Astronomy

Jan. 15, 2014 Rise Set
Actual Time 7:15 AM EST 4:10 PM EST
Civil Twilight 6:41 AM EST 4:44 PM EST
Nautical Twilight 6:03 AM EST 5:22 PM EST
Astronomical Twilight 5:26 AM EST 5:59 PM EST
Moon 4:08 PM EST (1/15) 6:25 AM EST (1/15)
Length of Visible Light 10h 03m
Length of Day
8h 54m
Full, 100% of the Moon is Illuminated
Jan 15
Full
Jan 15
Full
Jan 24
Last Quarter
Jan 30
New
Feb 6
First Quarter

Hourly Weather History & Observations

Time (EST) Temp. Windchill Dew Point Humidity Pressure Visibility Wind Dir Wind Speed Gust Speed Precip Events Conditions
12:10 AM 35.1 °F 30.1 °F 35.1 °F 100% 29.56 in 1.5 mi NW 5.8 mph - N/A   Overcast
12:13 AM 36.0 °F 31.1 °F 35.1 °F 97% 29.56 in 3.0 mi WNW 5.8 mph - N/A   Overcast
12:31 AM 35.1 °F 25.9 °F 34.0 °F 96% 29.57 in 10.0 mi NW 13.8 mph 20.7 mph N/A   Overcast
12:53 AM 34.0 °F 23.8 °F 33.1 °F 96% 29.60 in 10.0 mi NNW 16.1 mph 23.0 mph N/A   Overcast
1:04 AM 33.1 °F 22.6 °F 32.0 °F 96% 29.58 in 10.0 mi NNW 16.1 mph - N/A   Overcast
1:35 AM 33.1 °F 23.0 °F 30.9 °F 92% 29.60 in 10.0 mi NNW 15.0 mph - N/A   Overcast
1:46 AM 33.1 °F 23.9 °F 30.9 °F 92% 29.60 in 10.0 mi NNW 12.7 mph - N/A   Overcast
1:53 AM 32.0 °F 22.1 °F 30.9 °F 96% 29.63 in 10.0 mi NNW 13.8 mph 19.6 mph N/A   Overcast
2:53 AM 30.9 °F 18.4 °F 28.9 °F 92% 29.66 in 10.0 mi NW 20.7 mph 26.5 mph N/A   Overcast
3:26 AM 30.0 °F 19.1 °F 27.0 °F 88% 29.66 in 10.0 mi NW 15.0 mph - N/A   Overcast
3:53 AM 30.0 °F 20.0 °F 27.0 °F 88% 29.72 in 10.0 mi NW 12.7 mph 23.0 mph N/A   Overcast
4:37 AM 28.9 °F 19.2 °F 25.0 °F 85% 29.70 in 10.0 mi NW 11.5 mph - N/A   Mostly Cloudy
4:53 AM 28.9 °F 18.2 °F 25.0 °F 85% 29.74 in 10.0 mi NW 13.8 mph - N/A   Mostly Cloudy
5:53 AM 27.0 °F 15.6 °F 23.0 °F 85% 29.78 in 10.0 mi NNW 13.8 mph - N/A   Clear
6:53 AM 27.0 °F 17.3 °F 21.0 °F 78% 29.81 in 10.0 mi NW 10.4 mph - N/A   Mostly Cloudy
7:53 AM 25.0 °F 14.2 °F 19.0 °F 78% 29.86 in 10.0 mi NW 11.5 mph - N/A   Overcast
8:53 AM 26.1 °F 18.4 °F 18.0 °F 71% 29.89 in 10.0 mi NNW 6.9 mph - N/A   Overcast
9:53 AM 26.1 °F 18.4 °F 16.0 °F 66% 29.93 in 10.0 mi NNW 6.9 mph - N/A   Mostly Cloudy
10:53 AM 28.0 °F 22.8 °F 17.1 °F 63% 29.94 in 10.0 mi WNW 4.6 mph - N/A   Partly Cloudy
11:53 AM 28.9 °F - 19.0 °F 67% 29.91 in 10.0 mi Calm Calm - N/A   Mostly Cloudy
12:53 PM 28.9 °F 22.8 °F 19.9 °F 69% 29.91 in 10.0 mi SE 5.8 mph - N/A   Overcast
1:05 PM 28.9 °F 21.9 °F 21.0 °F 72% 29.87 in 10.0 mi SSE 6.9 mph - N/A   Overcast
1:48 PM 30.2 °F 22.6 °F 23.0 °F 75% 29.88 in 10.0 mi SE 8.1 mph - N/A   Overcast
1:53 PM 30.9 °F 23.5 °F 24.1 °F 76% 29.91 in 10.0 mi SE 8.1 mph - N/A   Overcast
2:53 PM 30.9 °F 24.3 °F 26.1 °F 82% 29.91 in 10.0 mi SE 6.9 mph - N/A   Mostly Cloudy
3:53 PM 30.0 °F 21.1 °F 27.0 °F 88% 29.90 in 10.0 mi SE 10.4 mph - N/A   Clear
4:30 PM 30.0 °F 21.7 °F 27.0 °F 88% 29.86 in 10.0 mi SE 9.2 mph - N/A   Mostly Cloudy
4:53 PM 30.0 °F 22.4 °F 27.0 °F 88% 29.90 in 10.0 mi SE 8.1 mph - N/A   Mostly Cloudy
5:07 PM 30.0 °F 24.1 °F 27.0 °F 88% 29.88 in 10.0 mi SE 5.8 mph - N/A   Scattered Clouds
5:53 PM 28.9 °F 21.1 °F 27.0 °F 92% 29.91 in 10.0 mi ESE 8.1 mph - N/A   Partly Cloudy
6:53 PM 30.0 °F 22.4 °F 28.0 °F 92% 29.90 in 10.0 mi SE 8.1 mph - N/A   Mostly Cloudy
7:53 PM 30.0 °F 22.4 °F 28.0 °F 92% 29.90 in 10.0 mi SE 8.1 mph - N/A   Mostly Cloudy
8:53 PM 30.0 °F 21.7 °F 28.0 °F 92% 29.90 in 10.0 mi SSE 9.2 mph - N/A   Overcast
9:53 PM 30.0 °F 22.4 °F 28.9 °F 96% 29.88 in 10.0 mi SE 8.1 mph - N/A   Overcast
10:53 PM 30.0 °F 21.7 °F 28.9 °F 96% 29.87 in 10.0 mi SE 9.2 mph - N/A   Overcast
11:11 PM 30.0 °F 23.2 °F 28.9 °F 96% 29.84 in 10.0 mi SE 6.9 mph - N/A   Overcast
11:21 PM 30.0 °F 25.2 °F 28.9 °F 96% 29.84 in 10.0 mi SSE 4.6 mph - N/A   Overcast
11:53 PM 30.9 °F 24.3 °F 28.9 °F 92% 29.87 in 10.0 mi SSE 6.9 mph - N/A   Overcast